,,Stat5,,Stat1,,Stat2,,Stat3,,Stat4,,Wind1,,Wind1,
time,status,PA1M_AVG,status,PR1M_SUM,status,RH1M_AVG,status,SR1M_AVG,status,TA1M_AVG,status,W1dAve1m,status,W1sAve1m,
2000-09-14, 00:00:00,VALID,917.276,VALID,0,VALID,87.4838,VALID,-0.0169808,VALID,20.4443,VALID,124,VALID,0.988498,
2000-09-14, 00:01:00,VALID,917.276,VALID,0,VALID,87.4724,VALID,-0.0339617,VALID,20.4799,VALID,138,VALID,0.759924,
2000-09-14, 00:02:00,VALID,917.275,VALID,0,VALID,87.5093,VALID,0,VALID,20.5154,VALID,138,VALID,0.814568,
2000-09-14, 00:03:00,VALID,917.27,VALID,0,VALID,87.2143,VALID,-0.0169808,VALID,20.5706,VALID,139,VALID,0.712891,
2000-09-14, 00:04:00,VALID,917.28,VALID,0,VALID,86.4437,VALID,-0.0339617,VALID,20.6387,VALID,144,VALID,0.675781,
2000-09-14, 00:05:00,VALID,917.285,VALID,0,VALID,86.0469,VALID,0,VALID,20.7282,VALID,136,VALID,0.960938,
2000-09-14, 00:06:00,VALID,917.299,VALID,0,VALID,85.6693,VALID,-0.0509425,VALID,20.8254,VALID,138,VALID,1.0002,
2000-09-14, 00:07:00,VALID,917.318,VALID,0,VALID,85.9109,VALID,0.0169808,VALID,20.8216,VALID,141,VALID,0.860045,
2000-09-14, 00:08:00,VALID,917.349,VALID,0,VALID,86.2657,VALID,-0.0339617,VALID,20.7836,VALID,133,VALID,0.689704,
2000-09-14, 00:09:00,VALID,917.357,VALID,0,VALID,86.4717,VALID,-0.0169808,VALID,20.7473,VALID,134,VALID,0.385045,
2000-09-14, 00:10:00,VALID,917.345,VALID,0,VALID,86.5912,VALID,-0.0169808,VALID,20.716,VALID,155,VALID,0.429487,
2000-09-14, 00:11:00,VALID,917.349,VALID,0,VALID,86.8913,VALID,0,VALID,20.6377,VALID,170,VALID,0.492405,
2000-09-14, 00:12:00,VALID,917.348,VALID,0,VALID,87.1075,VALID,0,VALID,20.5631,VALID,175,VALID,0.562309,
2000-09-14, 00:13:00,VALID,917.34,VALID,0,VALID,87.0668,VALID,-0.0339617,VALID,20.5345,VALID,171,VALID,0.831931,
2000-09-14, 00:14:00,VALID,917.35,VALID,0,VALID,87.0172,VALID,-0.0169808,VALID,20.541,VALID,152,VALID,0.583265,
2000-09-14, 00:15:00,VALID,917.357,VALID,0,VALID,87.0833,VALID,-0.0169808,VALID,20.5092,VALID,140,VALID,0.469752,
2000-09-14, 00:16:00,VALID,917.358,VALID,0,VALID,87.8844,VALID,-0.0339617,VALID,20.3856,VALID,136,VALID,0.5,
2000-09-14, 00:17:00,VALID,917.382,VALID,0,VALID,88.7593,VALID,-0.0169808,VALID,20.2591,VALID,168,VALID,0.664263,
2000-09-14, 00:18:00,VALID,917.398,VALID,0,VALID,89.54,VALID,0,VALID,20.1398,VALID,208,VALID,0.938672,
2000-09-14, 00:19:00,VALID,917.393,VALID,0,VALID,90.1186,VALID,0,VALID,20.0469,VALID,191,VALID,0.742188,
2000-09-14, 00:20:00,VALID,917.404,VALID,0,VALID,90.5268,VALID,-0.0509425,VALID,19.953,VALID,158,VALID,0.805859,
2000-09-14, 00:21:00,VALID,917.403,VALID,0,VALID,90.64,VALID,-0.0509425,VALID,19.8913,VALID,156,VALID,0.918069,
2000-09-14, 00:22:00,VALID,917.403,VALID,0,VALID,91.1245,VALID,-0.0509425,VALID,19.8406,VALID,168,VALID,1.01871,
2000-09-14, 00:23:00,VALID,917.405,VALID,0,VALID,91.3546,VALID,-0.0339617,VALID,19.8145,VALID,208,VALID,0.884215,
2000-09-14, 00:24:00,VALID,917.409,VALID,0,VALID,91.5924,VALID,-0.0339617,VALID,19.7755,VALID,222,VALID,1.13076,
2000-09-14, 00:25:00,VALID,917.42,VALID,0,VALID,92.2549,VALID,0,VALID,19.7266,VALID,226,VALID,0.996194,
2000-09-14, 00:26:00,VALID,917.418,VALID,0,VALID,92.4724,VALID,-0.0339617,VALID,19.6786,VALID,227,VALID,0.717969,
2000-09-14, 00:27:00,VALID,917.422,VALID,0,VALID,92.4584,VALID,-0.0679233,VALID,19.6011,VALID,239,VALID,0.816512,
2000-09-14, 00:28:00,VALID,917.427,VALID,0,VALID,93.0268,VALID,0,VALID,19.5203,VALID,241,VALID,0.743164,
2000-09-14, 00:29:00,VALID,917.436,VALID,0,VALID,93.4655,VALID,-0.0169808,VALID,19.4361,VALID,230,VALID,0.728966,
2000-09-14, 00:30:00,VALID,917.445,VALID,0,VALID,94.189,VALID,0,VALID,19.3645,VALID,243,VALID,1.14248,
2000-09-14, 00:31:00,VALID,917.45,VALID,0,VALID,95.1008,VALID,0,VALID,19.3531,VALID,257,VALID,0.60597,
2000-09-14, 00:32:00,VALID,917.447,VALID,0,VALID,95.3754,VALID,-0.0169808,VALID,19.3235,VALID,245,VALID,0.558799,
2000-09-14, 00:33:00,VALID,917.433,VALID,0,VALID,95.4352,VALID,-0.0169808,VALID,19.3039,VALID,252,VALID,0.143029,
2000-09-14, 00:34:00,VALID,917.41,VALID,0,VALID,95.6259,VALID,0,VALID,19.3136,VALID,252,VALID,0,
2000-09-14, 00:35:00,VALID,917.407,VALID,0,VALID,95.706,VALID,-0.0169808,VALID,19.3297,VALID,254,VALID,0.0546875,
2000-09-14, 00:36:00,VALID,917.397,VALID,0,VALID,95.5636,VALID,0,VALID,19.3556,VALID,277,VALID,0.0792969,
2000-09-14, 00:37:00,VALID,917.415,VALID,0,VALID,95.2317,VALID,0,VALID,19.3528,VALID,249,VALID,0.434896,
2000-09-14, 00:38:00,VALID,917.413,VALID,0,VALID,95.0677,VALID,0,VALID,19.3161,VALID,219,VALID,0.420641,
2000-09-14, 00:39:00,VALID,917.407,VALID,0,VALID,95.247,VALID,0,VALID,19.3262,VALID,214,VALID,0.64363,
2000-09-14, 00:40:00,VALID,917.406,VALID,0,VALID,95.5585,VALID,-0.0169808,VALID,19.3489,VALID,207,VALID,1.10588,
2000-09-14, 00:41:00,VALID,917.379,VALID,0,VALID,95.4975,VALID,0,VALID,19.4135,VALID,211,VALID,0.585537,
2000-09-14, 00:42:00,VALID,917.362,VALID,0,VALID,95.3996,VALID,0.0169808,VALID,19.4848,VALID,196,VALID,0.865625,
2000-09-14, 00:43:00,VALID,917.343,VALID,0,VALID,94.9113,VALID,0,VALID,19.5529,VALID,181,VALID,0.647382,
2000-09-14, 00:44:00,VALID,917.329,VALID,0,VALID,94.278,VALID,0,VALID,19.6142,VALID,164,VALID,0.1875,
2000-09-14, 00:45:00,VALID,917.315,VALID,0,VALID,94.1127,VALID,-0.0339617,VALID,19.6209,VALID,173,VALID,0.0120192,
2000-09-14, 00:46:00,VALID,917.323,VALID,0,VALID,94.1153,VALID,0,VALID,19.6175,VALID,181,VALID,0,
2000-09-14, 00:47:00,VALID,917.317,VALID,0,VALID,94.142,VALID,0,VALID,19.5879,VALID,158,VALID,0,
2000-09-14, 00:48:00,VALID,917.304,VALID,0,VALID,94.1191,VALID,0,VALID,19.5424,VALID,164,VALID,0,
2000-09-14, 00:49:00,VALID,917.301,VALID,0,VALID,94.2717,VALID,0,VALID,19.5012,VALID,157,VALID,0,
2000-09-14, 00:50:00,VALID,917.291,VALID,0,VALID,94.4395,VALID,0,VALID,19.442,VALID,164,VALID,0,
2000-09-14, 00:51:00,VALID,917.283,VALID,0,VALID,94.5819,VALID,0,VALID,19.4038,VALID,174,VALID,0,
2000-09-14, 00:52:00,VALID,917.29,VALID,0,VALID,94.7231,VALID,0.0169808,VALID,19.3814,VALID,167,VALID,0,
2000-09-14, 00:53:00,VALID,917.277,VALID,0,VALID,94.6176,VALID,0,VALID,19.3329,VALID,162,VALID,0.13742,
2000-09-14, 00:54:00,VALID,917.269,VALID,0,VALID,94.4878,VALID,-0.0169808,VALID,19.2815,VALID,151,VALID,0.940173,
2000-09-14, 00:55:00,VALID,917.244,VALID,0,VALID,94.6481,VALID,0.0169808,VALID,19.2465,VALID,173,VALID,0.913462,
2000-09-14, 00:56:00,VALID,917.227,VALID,0,VALID,94.9825,VALID,-0.0169808,VALID,19.2529,VALID,181,VALID,0.927426,
2000-09-14, 00:57:00,VALID,917.208,VALID,0,VALID,95.1262,VALID,0,VALID,19.2691,VALID,175,VALID,0.88742,
2000-09-14, 00:58:00,VALID,917.18,VALID,0,VALID,95.5407,VALID,-0.0339617,VALID,19.3011,VALID,181,VALID,0.744531,
2000-09-14, 00:59:00,VALID,917.167,VALID,0,VALID,95.6476,VALID,0,VALID,19.3168,VALID,186,VALID,0.729519,
2000-09-14, 01:00:00,VALID,917.153,VALID,0,VALID,95.6895,VALID,0,VALID,19.3362,VALID,197,VALID,0.702148,
2000-09-14, 01:01:00,VALID,917.149,VALID,0,VALID,95.4212,VALID,0,VALID,19.3466,VALID,201,VALID,0.494391,
2000-09-14, 01:02:00,VALID,917.128,VALID,0,VALID,95.0893,VALID,0,VALID,19.3625,VALID,195,VALID,0.43935,
2000-09-14, 01:03:00,VALID,917.113,VALID,0,VALID,94.1928,VALID,-0.0169808,VALID,19.3461,VALID,136,VALID,0.466146,
2000-09-14, 01:04:00,VALID,917.108,VALID,0,VALID,93.5697,VALID,0,VALID,19.2492,VALID,121,VALID,0.590255,
2000-09-14, 01:05:00,VALID,917.101,VALID,0,VALID,94.6811,VALID,0,VALID,19.1714,VALID,132,VALID,0.442308,
2000-09-14, 01:06:00,VALID,917.078,VALID,0,VALID,95.4288,VALID,-0.0169808,VALID,19.1359,VALID,142,VALID,0.550195,
2000-09-14, 01:07:00,VALID,917.046,VALID,0,VALID,95.809,VALID,-0.0339617,VALID,19.1493,VALID,142,VALID,0.707137,
2000-09-14, 01:08:00,VALID,917.014,VALID,0,VALID,95.6399,VALID,-0.0169808,VALID,19.1396,VALID,136,VALID,0.370117,
2000-09-14, 01:09:00,VALID,916.994,VALID,0,VALID,94.8846,VALID,-0.0339617,VALID,19.085,VALID,121,VALID,0.0270433,
2000-09-14, 01:10:00,VALID,916.98,VALID,0,VALID,94.9774,VALID,-0.0169808,VALID,19.0326,VALID,121,VALID,0,
2000-09-14, 01:11:00,VALID,916.957,VALID,0,VALID,95.3487,VALID,0,VALID,19.0432,VALID,121,VALID,0,
2000-09-14, 01:12:00,VALID,916.95,VALID,0,VALID,95.5051,VALID,-0.0169808,VALID,19.0236,VALID,121,VALID,0,
2000-09-14, 01:13:00,VALID,916.942,VALID,0,VALID,95.3627,VALID,-0.0339617,VALID,19.0268,VALID,121,VALID,0,
2000-09-14, 01:14:00,VALID,916.951,VALID,0,VALID,94.9545,VALID,-0.0169808,VALID,18.9873,VALID,121,VALID,0,
2000-09-14, 01:15:00,VALID,916.953,VALID,0,VALID,94.5603,VALID,0,VALID,18.9456,VALID,121,VALID,0,
2000-09-14, 01:16:00,VALID,916.968,VALID,0,VALID,95.1745,VALID,0,VALID,18.8937,VALID,135,VALID,0.116211,
2000-09-14, 01:17:00,VALID,916.986,VALID,0,VALID,95.8803,VALID,-0.0169808,VALID,18.9008,VALID,150,VALID,0.714744,
2000-09-14, 01:18:00,VALID,916.98,VALID,0,VALID,95.9146,VALID,-0.0169808,VALID,18.9008,VALID,145,VALID,0.652755,
2000-09-14, 01:19:00,VALID,917,VALID,0,VALID,95.3856,VALID,-0.0339617,VALID,18.8812,VALID,147,VALID,0.702925,
2000-09-14, 01:20:00,VALID,917.001,VALID,0,VALID,95.3805,VALID,-0.0509425,VALID,18.905,VALID,161,VALID,0.724712,
2000-09-14, 01:21:00,VALID,917.005,VALID,0,VALID,94.9482,VALID,-0.0339617,VALID,18.9523,VALID,186,VALID,1.001,
2000-09-14, 01:22:00,VALID,917.012,VALID,0,VALID,94.334,VALID,-0.0339617,VALID,19.0395,VALID,209,VALID,1.1416,
2000-09-14, 01:23:00,VALID,917.016,VALID,0,VALID,94.0046,VALID,-0.0339617,VALID,19.1304,VALID,210,VALID,1.28906,
2000-09-14, 01:24:00,VALID,917.011,VALID,0,VALID,94.4077,VALID,-0.0169808,VALID,19.1814,VALID,217,VALID,1.84121,
2000-09-14, 01:25:00,VALID,917.001,VALID,0,VALID,95.0474,VALID,0,VALID,19.2042,VALID,220,VALID,1.80108,
2000-09-14, 01:26:00,VALID,916.969,VALID,0,VALID,95.4988,VALID,-0.0169808,VALID,19.1851,VALID,220,VALID,1.42763,
2000-09-14, 01:27:00,VALID,916.946,VALID,0,VALID,95.9171,VALID,0,VALID,19.1493,VALID,213,VALID,1.36699,
2000-09-14, 01:28:00,VALID,916.919,VALID,0,VALID,96.249,VALID,0,VALID,19.1011,VALID,213,VALID,0.781867,
2000-09-14, 01:29:00,VALID,916.893,VALID,0,VALID,96.4652,VALID,-0.0169808,VALID,19.0589,VALID,224,VALID,0.78746,
2000-09-14, 01:30:00,VALID,916.869,VALID,0,VALID,96.6013,VALID,-0.101885,VALID,19.0144,VALID,250,VALID,0.554883,
2000-09-14, 01:31:00,VALID,916.857,VALID,0,VALID,96.7538,VALID,-0.0849042,VALID,18.9791,VALID,255,VALID,0.0622889,
2000-09-14, 01:32:00,VALID,916.841,VALID,0,VALID,96.8403,VALID,-0.0849042,VALID,18.9602,VALID,252,VALID,0.0882813,
2000-09-14, 01:33:00,VALID,916.825,VALID,0,VALID,97.0183,VALID,-0.0849042,VALID,18.9401,VALID,278,VALID,0.464143,
2000-09-14, 01:34:00,VALID,916.813,VALID,0,VALID,97.2053,VALID,-0.0679233,VALID,18.9306,VALID,282,VALID,0.325452,
2000-09-14, 01:35:00,VALID,916.823,VALID,0,VALID,97.2956,VALID,-0.0849042,VALID,18.9142,VALID,286,VALID,0.325721,
2000-09-14, 01:36:00,VALID,916.823,VALID,0,VALID,97.354,VALID,-0.0849042,VALID,18.9147,VALID,298,VALID,0.457031,
2000-09-14, 01:37:00,VALID,916.826,VALID,0,VALID,97.3261,VALID,-0.0849042,VALID,18.8986,VALID,314,VALID,0.684295,
2000-09-14, 01:38:00,VALID,916.838,VALID,0,VALID,97.2409,VALID,-0.0849042,VALID,18.9053,VALID,276,VALID,0.214844,
2000-09-14, 01:39:00,VALID,916.838,VALID,0,VALID,97.1328,VALID,-0.0849042,VALID,18.9152,VALID,258,VALID,0.170819,
2000-09-14, 01:40:00,VALID,916.83,VALID,0,VALID,96.9751,VALID,-0.101885,VALID,18.8852,VALID,253,VALID,0,
2000-09-14, 01:41:00,VALID,916.812,VALID,0,VALID,96.8619,VALID,-0.0849042,VALID,18.8725,VALID,217,VALID,0.520633,
2000-09-14, 01:42:00,VALID,916.784,VALID,0,VALID,96.867,VALID,-0.0849042,VALID,18.876,VALID,215,VALID,0.677837,
2000-09-14, 01:43:00,VALID,916.752,VALID,0,VALID,96.8619,VALID,-0.0849042,VALID,18.873,VALID,207,VALID,0.530048,
2000-09-14, 01:44:00,VALID,916.735,VALID,0,VALID,96.7233,VALID,-0.0509425,VALID,18.8695,VALID,182,VALID,0.406661,
2000-09-14, 01:45:00,VALID,916.711,VALID,0,VALID,96.6076,VALID,0.0339617,VALID,18.8584,VALID,167,VALID,0.6873,
2000-09-14, 01:46:00,VALID,916.703,VALID,0,VALID,96.3317,VALID,0.0169808,VALID,18.8422,VALID,138,VALID,0.975391,
2000-09-14, 01:47:00,VALID,916.681,VALID,0,VALID,96.3151,VALID,0,VALID,18.8425,VALID,139,VALID,0.73902,
2000-09-14, 01:48:00,VALID,916.667,VALID,0,VALID,96.4957,VALID,0,VALID,18.8559,VALID,150,VALID,0.640234,
2000-09-14, 01:49:00,VALID,916.662,VALID,0,VALID,96.5669,VALID,0,VALID,18.8715,VALID,154,VALID,0.747396,
2000-09-14, 01:50:00,VALID,916.655,VALID,0,VALID,96.5555,VALID,0,VALID,18.8842,VALID,167,VALID,0.850329,
2000-09-14, 01:51:00,VALID,916.664,VALID,0,VALID,96.4232,VALID,0.0339617,VALID,18.9135,VALID,167,VALID,1.11879,
2000-09-14, 01:52:00,VALID,916.672,VALID,0,VALID,95.7289,VALID,0.0169808,VALID,18.9264,VALID,169,VALID,1.2683,
2000-09-14, 01:53:00,VALID,916.677,VALID,0,VALID,95.2216,VALID,0,VALID,18.9684,VALID,171,VALID,0.936098,
2000-09-14, 01:54:00,VALID,916.696,VALID,0,VALID,94.9901,VALID,0,VALID,18.9947,VALID,185,VALID,1.23066,
2000-09-14, 01:55:00,VALID,916.697,VALID,0,VALID,94.4917,VALID,0,VALID,19.001,VALID,182,VALID,1.24852,
2000-09-14, 01:56:00,VALID,916.692,VALID,0,VALID,94.2412,VALID,0,VALID,19.0199,VALID,182,VALID,0.979102,
2000-09-14, 01:57:00,VALID,916.682,VALID,0,VALID,94.0034,VALID,0.0509425,VALID,19.036,VALID,169,VALID,0.5623,
2000-09-14, 01:58:00,VALID,916.687,VALID,0,VALID,94.1153,VALID,0,VALID,19.0397,VALID,193,VALID,0.533512,
2000-09-14, 01:59:00,VALID,916.692,VALID,0,VALID,94.6671,VALID,0,VALID,19.0365,VALID,206,VALID,0.861979,
2000-09-14, 02:00:00,VALID,916.697,VALID,0,VALID,94.8871,VALID,0,VALID,19.0238,VALID,186,VALID,0.455798,
2000-09-14, 02:01:00,VALID,916.702,VALID,0,VALID,94.5947,VALID,0.0339617,VALID,18.9784,VALID,167,VALID,0.619591,
2000-09-14, 02:02:00,VALID,916.709,VALID,0,VALID,94.9622,VALID,0.0169808,VALID,18.9463,VALID,164,VALID,0.532617,
2000-09-14, 02:03:00,VALID,916.719,VALID,0,VALID,95.0893,VALID,0.0169808,VALID,18.9168,VALID,163,VALID,0.324747,
2000-09-14, 02:04:00,VALID,916.725,VALID,0,VALID,95.392,VALID,0.0339617,VALID,18.9071,VALID,164,VALID,0.00644531,
2000-09-14, 02:05:00,VALID,916.735,VALID,0,VALID,95.6463,VALID,0,VALID,18.9101,VALID,164,VALID,0,
2000-09-14, 02:06:00,VALID,916.736,VALID,0,VALID,95.8637,VALID,0,VALID,18.9264,VALID,164,VALID,0,
2000-09-14, 02:07:00,VALID,916.745,VALID,0,VALID,95.9794,VALID,0.0339617,VALID,18.9493,VALID,164,VALID,0,
2000-09-14, 02:08:00,VALID,916.748,VALID,0,VALID,95.9934,VALID,0.0169808,VALID,18.9488,VALID,164,VALID,0,
2000-09-14, 02:09:00,VALID,916.742,VALID,0,VALID,96.0316,VALID,0,VALID,18.9585,VALID,164,VALID,0,
2000-09-14, 02:10:00,VALID,916.746,VALID,0,VALID,96.0456,VALID,0.0169808,VALID,18.9684,VALID,179,VALID,0.0142578,
2000-09-14, 02:11:00,VALID,916.731,VALID,0,VALID,95.9744,VALID,0,VALID,18.9816,VALID,247,VALID,0.115076,
2000-09-14, 02:12:00,VALID,916.701,VALID,0,VALID,95.879,VALID,0.0169808,VALID,18.9973,VALID,247,VALID,0.0322266,
2000-09-14, 02:13:00,VALID,916.687,VALID,0,VALID,95.7327,VALID,0.0339617,VALID,19.0109,VALID,247,VALID,0.0266426,
2000-09-14, 02:14:00,VALID,916.663,VALID,0,VALID,95.6145,VALID,-0.0169808,VALID,19.0268,VALID,253,VALID,0.0816201,
2000-09-14, 02:15:00,VALID,916.653,VALID,0,VALID,95.4352,VALID,0.0339617,VALID,19.0261,VALID,266,VALID,0.00240385,
2000-09-14, 02:16:00,VALID,916.649,VALID,0,VALID,95.1173,VALID,0,VALID,19.0586,VALID,257,VALID,0,
2000-09-14, 02:17:00,VALID,916.652,VALID,0,VALID,94.9024,VALID,0.0169808,VALID,19.0815,VALID,248,VALID,0.566106,
2000-09-14, 02:18:00,VALID,916.633,VALID,0,VALID,94.4599,VALID,0.0169808,VALID,19.0711,VALID,250,VALID,0.610937,
2000-09-14, 02:19:00,VALID,916.644,VALID,0,VALID,94.0453,VALID,0.0169808,VALID,19.0976,VALID,255,VALID,0.734586,
2000-09-14, 02:20:00,VALID,916.626,VALID,0,VALID,93.7529,VALID,0.0339617,VALID,19.1324,VALID,262,VALID,0.632813,
2000-09-14, 02:21:00,VALID,916.625,VALID,0,VALID,93.3968,VALID,0,VALID,19.1844,VALID,262,VALID,0.370994,
2000-09-14, 02:22:00,VALID,916.611,VALID,0,VALID,93.1476,VALID,0,VALID,19.2365,VALID,251,VALID,0.167146,
2000-09-14, 02:23:00,VALID,916.604,VALID,0,VALID,93.4769,VALID,0.0169808,VALID,19.2785,VALID,243,VALID,0.227163,
2000-09-14, 02:24:00,VALID,916.593,VALID,0,VALID,93.4617,VALID,0,VALID,19.2949,VALID,238,VALID,0.407278,
2000-09-14, 02:25:00,VALID,916.575,VALID,0,VALID,93.1883,VALID,0.0169808,VALID,19.285,VALID,246,VALID,0.0216346,
2000-09-14, 02:26:00,VALID,916.561,VALID,0,VALID,92.8411,VALID,0,VALID,19.2979,VALID,249,VALID,0.0482422,
2000-09-14, 02:27:00,VALID,916.543,VALID,0,VALID,93.0268,VALID,-0.0169808,VALID,19.3376,VALID,247,VALID,0.719172,
2000-09-14, 02:28:00,VALID,916.528,VALID,0,VALID,92.8208,VALID,0,VALID,19.3401,VALID,233,VALID,0.347461,
2000-09-14, 02:29:00,VALID,916.492,VALID,0,VALID,92.7852,VALID,0,VALID,19.3493,VALID,228,VALID,0.244191,
2000-09-14, 02:30:00,VALID,916.462,VALID,0,VALID,92.8081,VALID,0,VALID,19.3628,VALID,210,VALID,0.698808,
2000-09-14, 02:31:00,VALID,916.429,VALID,0,VALID,92.8004,VALID,0,VALID,19.3913,VALID,230,VALID,0.996795,
2000-09-14, 02:32:00,VALID,916.394,VALID,0,VALID,92.4838,VALID,0.0169808,VALID,19.4753,VALID,213,VALID,0.967516,
2000-09-14, 02:33:00,VALID,916.352,VALID,0,VALID,92.0921,VALID,0.0169808,VALID,19.5725,VALID,217,VALID,0.719151,
2000-09-14, 02:34:00,VALID,916.326,VALID,0,VALID,91.8633,VALID,0,VALID,19.6441,VALID,200,VALID,0.74375,
2000-09-14, 02:35:00,VALID,916.301,VALID,0,VALID,91.6458,VALID,0,VALID,19.6955,VALID,189,VALID,0.709037,
2000-09-14, 02:36:00,VALID,916.273,VALID,0,VALID,90.9477,VALID,0,VALID,19.6759,VALID,109,VALID,0.4375,
2000-09-14, 02:37:00,VALID,916.246,VALID,0,VALID,91.3851,VALID,0.0169808,VALID,19.6269,VALID,96,VALID,0.259014,
2000-09-14, 02:38:00,VALID,916.223,VALID,0,VALID,91.7501,VALID,0,VALID,19.5919,VALID,124,VALID,0.515831,
2000-09-14, 02:39:00,VALID,916.194,VALID,0,VALID,91.82,VALID,0,VALID,19.5561,VALID,94,VALID,0.614784,
2000-09-14, 02:40:00,VALID,916.174,VALID,0,VALID,92.1227,VALID,0,VALID,19.5046,VALID,90,VALID,0.0748355,
2000-09-14, 02:41:00,VALID,916.144,VALID,0,VALID,92.2842,VALID,0,VALID,19.4266,VALID,88,VALID,0.668069,
2000-09-14, 02:42:00,VALID,916.116,VALID,0,VALID,92.6351,VALID,0,VALID,19.3558,VALID,95,VALID,1.07461,
2000-09-14, 02:43:00,VALID,916.086,VALID,0,VALID,93.0001,VALID,0.0169808,VALID,19.278,VALID,97,VALID,0.81609,
2000-09-14, 02:44:00,VALID,916.072,VALID,0,VALID,93.0929,VALID,0,VALID,19.2271,VALID,115,VALID,0.438086,
2000-09-14, 02:45:00,VALID,916.029,VALID,0,VALID,93.435,VALID,-0.0169808,VALID,19.1493,VALID,111,VALID,0.595954,
2000-09-14, 02:46:00,VALID,916.014,VALID,0,VALID,93.9156,VALID,0.0169808,VALID,19.0683,VALID,111,VALID,0.888363,
2000-09-14, 02:47:00,VALID,915.997,VALID,0,VALID,94.3798,VALID,0,VALID,18.9816,VALID,115,VALID,0.872596,
2000-09-14, 02:48:00,VALID,915.993,VALID,0,VALID,94.966,VALID,0.0169808,VALID,18.926,VALID,107,VALID,1.09313,
2000-09-14, 02:49:00,VALID,915.983,VALID,0,VALID,95.027,VALID,0.0339617,VALID,18.926,VALID,117,VALID,0.922476,
2000-09-14, 02:50:00,VALID,915.988,VALID,0,VALID,95.1351,VALID,0.0169808,VALID,18.9133,VALID,128,VALID,0.932031,
2000-09-14, 02:51:00,VALID,915.979,VALID,0,VALID,95.2127,VALID,0,VALID,18.9424,VALID,127,VALID,0.95228,
2000-09-14, 02:52:00,VALID,915.968,VALID,0,VALID,94.8592,VALID,0.0169808,VALID,18.9684,VALID,113,VALID,1.04121,
2000-09-14, 02:53:00,VALID,915.965,VALID,0,VALID,94.6773,VALID,0.0169808,VALID,18.9654,VALID,106,VALID,1.28906,
2000-09-14, 02:54:00,VALID,915.959,VALID,0,VALID,94.8019,VALID,0,VALID,18.9135,VALID,106,VALID,1.15625,
2000-09-14, 02:55:00,VALID,915.941,VALID,0,VALID,94.8299,VALID,0,VALID,18.8937,VALID,110,VALID,1.04046,
2000-09-14, 02:56:00,VALID,915.941,VALID,0,VALID,95.144,VALID,0,VALID,18.881,VALID,130,VALID,0.805099,
2000-09-14, 02:57:00,VALID,915.948,VALID,0,VALID,95.2076,VALID,0.0339617,VALID,18.9004,VALID,143,VALID,0.787059,
2000-09-14, 02:58:00,VALID,915.941,VALID,0,VALID,95.1275,VALID,0.0169808,VALID,18.9066,VALID,141,VALID,0.795508,
2000-09-14, 02:59:00,VALID,915.946,VALID,0,VALID,95.2661,VALID,0.0339617,VALID,18.9421,VALID,142,VALID,0.893159,
2000-09-14, 03:00:00,VALID,915.942,VALID,0,VALID,95.2737,VALID,0.0339617,VALID,18.9677,VALID,149,VALID,0.963086,
2000-09-14, 03:01:00,VALID,915.933,VALID,0,VALID,94.8693,VALID,0.0339617,VALID,19.0199,VALID,124,VALID,0.689704,
2000-09-14, 03:02:00,VALID,915.934,VALID,0,VALID,94.8248,VALID,0.0509425,VALID,19.0358,VALID,137,VALID,0.743627,
2000-09-14, 03:03:00,VALID,915.93,VALID,0,VALID,94.7104,VALID,0.0509425,VALID,19.0748,VALID,148,VALID,0.819111,
2000-09-14, 03:04:00,VALID,915.925,VALID,0,VALID,94.5145,VALID,0.0339617,VALID,19.1039,VALID,170,VALID,0.775699,
2000-09-14, 03:05:00,VALID,915.912,VALID,0,VALID,94.2984,VALID,0,VALID,19.1585,VALID,173,VALID,0.723357,
2000-09-14, 03:06:00,VALID,915.914,VALID,0,VALID,93.997,VALID,0.0509425,VALID,19.207,VALID,192,VALID,0.623828,
2000-09-14, 03:07:00,VALID,915.906,VALID,0,VALID,93.8571,VALID,0.0169808,VALID,19.2162,VALID,201,VALID,0.763514,
2000-09-14, 03:08:00,VALID,915.906,VALID,0,VALID,93.8025,VALID,0.0509425,VALID,19.236,VALID,209,VALID,0.496484,
2000-09-14, 03:09:00,VALID,915.913,VALID,0,VALID,93.7033,VALID,0,VALID,19.2457,VALID,213,VALID,0.649038,
2000-09-14, 03:10:00,VALID,915.911,VALID,0,VALID,93.6193,VALID,0,VALID,19.2494,VALID,223,VALID,0.556127,
2000-09-14, 03:11:00,VALID,915.919,VALID,0,VALID,93.5074,VALID,0.0169808,VALID,19.2398,VALID,228,VALID,0.657452,
2000-09-14, 03:12:00,VALID,915.916,VALID,0,VALID,93.6702,VALID,0,VALID,19.1978,VALID,242,VALID,0.61616,
2000-09-14, 03:13:00,VALID,915.913,VALID,0,VALID,93.8559,VALID,0,VALID,19.1558,VALID,233,VALID,0.470353,
2000-09-14, 03:14:00,VALID,915.915,VALID,0,VALID,93.9665,VALID,0.0169808,VALID,19.1004,VALID,232,VALID,0.422461,
2000-09-14, 03:15:00,VALID,915.908,VALID,0,VALID,94.1763,VALID,0,VALID,19.0623,VALID,246,VALID,0.61212,
2000-09-14, 03:16:00,VALID,915.901,VALID,0,VALID,94.3187,VALID,0.0169808,VALID,19.0171,VALID,228,VALID,0.532422,
2000-09-14, 03:17:00,VALID,915.895,VALID,0,VALID,94.479,VALID,0,VALID,18.9682,VALID,227,VALID,0,
2000-09-14, 03:18:00,VALID,915.879,VALID,0,VALID,94.732,VALID,0,VALID,18.9359,VALID,245,VALID,0,
2000-09-14, 03:19:00,VALID,915.865,VALID,0,VALID,94.9126,VALID,-0.0169808,VALID,18.9232,VALID,245,VALID,0,
2000-09-14, 03:20:00,VALID,915.854,VALID,0,VALID,94.882,VALID,0,VALID,18.9205,VALID,232,VALID,0,
2000-09-14, 03:21:00,VALID,915.858,VALID,0,VALID,94.643,VALID,-0.0169808,VALID,18.9045,VALID,231,VALID,0,
2000-09-14, 03:22:00,VALID,915.856,VALID,0,VALID,94.8414,VALID,0,VALID,18.8847,VALID,230,VALID,0,
2000-09-14, 03:23:00,VALID,915.853,VALID,0,VALID,94.9901,VALID,0,VALID,18.9075,VALID,216,VALID,0,
2000-09-14, 03:24:00,VALID,915.841,VALID,0,VALID,94.5476,VALID,0,VALID,18.9461,VALID,202,VALID,0,
2000-09-14, 03:25:00,VALID,915.826,VALID,0,VALID,94.0797,VALID,0,VALID,19.0174,VALID,212,VALID,0,
2000-09-14, 03:26:00,VALID,915.813,VALID,0,VALID,93.7605,VALID,-0.0169808,VALID,19.0656,VALID,212,VALID,0,
2000-09-14, 03:27:00,VALID,915.806,VALID,0,VALID,93.4629,VALID,-0.0169808,VALID,19.0882,VALID,209,VALID,0,
2000-09-14, 03:28:00,VALID,915.808,VALID,0,VALID,93.4083,VALID,0,VALID,19.1106,VALID,183,VALID,0,
2000-09-14, 03:29:00,VALID,915.817,VALID,0,VALID,93.187,VALID,0,VALID,19.1202,VALID,185,VALID,0,
2000-09-14, 03:30:00,VALID,915.812,VALID,0,VALID,92.9505,VALID,0.0169808,VALID,19.1461,VALID,203,VALID,0,
2000-09-14, 03:31:00,VALID,915.818,VALID,0,VALID,92.6339,VALID,0,VALID,19.162,VALID,213,VALID,0.465372,
2000-09-14, 03:32:00,VALID,915.815,VALID,0,VALID,92.4838,VALID,0,VALID,19.2012,VALID,214,VALID,0.844727,
2000-09-14, 03:33:00,VALID,915.824,VALID,0,VALID,92.3223,VALID,0,VALID,19.2268,VALID,203,VALID,1.09395,
2000-09-14, 03:34:00,VALID,915.83,VALID,0,VALID,92.3846,VALID,0,VALID,19.2663,VALID,202,VALID,0.856497,
2000-09-14, 03:35:00,VALID,915.815,VALID,0,VALID,92.4889,VALID,0,VALID,19.2589,VALID,211,VALID,0.913061,
2000-09-14, 03:36:00,VALID,915.803,VALID,0,VALID,92.7241,VALID,0,VALID,19.2398,VALID,199,VALID,0.902961,
2000-09-14, 03:37:00,VALID,915.792,VALID,0,VALID,92.5245,VALID,-0.0169808,VALID,19.2012,VALID,206,VALID,1.04167,